Location: College Park
(38.9810°N, 76.9370°W)
Time: 18:10:40
(UTC-05:00)

N. Korean satellite - Pass Details

Date: 16 November 2017
Orbit: 460 x 515 km, 97.2° (Epoch: 17 November)

Event Time Altitude Azimuth Distance (km) Brightness Sun altitude
Rises 05:50:35 0° 35° (NE) 2,606 10.5 -12.1°
Reaches altitude 10° 05:53:42 10° 64° (ENE) 1,725 10.1 -11.5°
Maximum altitude 05:55:27 13° 92° (E) 1,550 10.4 -11.2°
Drops below altitude 10° 05:57:13 10° 120° (ESE) 1,728 10.8 -10.9°
Sets 06:00:19 0° 150° (SSE) 2,613 11.1 -10.3°
